Terminal Aerodrome Forecast
Issued by NWS

Home | Current Version | Previous Version | Graphics & Text | Print | Product List | Glossary Off
Versions: 1 2 3 4 5 6 7 8 9 10 11 12 13 14 15 16 17 18 19 20 21 22 23 24 25 26 27 28 29 30 31 32 33 34 35 36 37 38 39 40 41 42 43 44 45 46

000
FTUS43 KDDC 281507 AAD
TAFHYS
TAF AMD
KHYS 281507Z 2815/2912 10009KT 4SM BR OVC008
     FM281900 10016G24KT P6SM -SHRA OVC020
     FM290300 08017G25KT 1 1/2SM SHRA BR OVC003
      AMD NOT SKED=

USA.gov is the U.S. government's official web portal to all federal, state and local government web resources and services.